Starlink 32334

operational
NORAD ID: 62023 Int'l Des: 2024-213 Owner: SPXS Country: US Constellation: starlink
LEOCIRCULAR

关于 Starlink 32334

正在加载描述...

实时位置

正在加载3D地球...

即将过境

高度历史

Altitude vs Time

uPlot chart will show altitude changes over time

两行轨道根数

1 62023U 24213R 25307.66296208 .00025932 00000-0 88402-3 0 9997
2 62023 53.1589 33.2141 0001343 80.2052 279.9101 15.30221875 53863
Epoch: Nov 3, 2025 • Age: 11 hours

当前状态

高度 475.3 km
速度 7.63 km/s
星下点 23.35°N, 38.97°W
发射日期 Nov 18, 2024
运行时间 0.9 years
类型 internet

技术详情

分类 Payload
质量 730.00 kg
干质量 700.00 kg
总质量 730.00 kg
长度 0.30 m
直径 4.10 m
跨度 29.00 m
形状 Box + pan
制造商 SPXS
平台类型 Starlink V2M
阶段状态 In Orbit
所有者/国家 SPXS/US

大型星座

Loading constellations...